Regional Weather Roundup
Issued by NWS

Home | Current Version | Previous Version | Text Only | Print | Product List | Glossary Off
Versions: 1 2 3 4 5 6 7 8 9 10 11 12 13 14 15 16 17 18 19 20 21 22 23 24 25 26 27 28 29 30 31 32 33 34 35 36 37 38 39 40 41 42 43 44 45 46 47 48 49 50

865
ASUS45 KCYS 290410
RWRWY

WYOMING REGIONAL WEATHER ROUNDUP
NATIONAL WEATHER SERVICE CHEYENNE WY
1000 PM MDT SUN AUG 28 2016

NOTE:  "FAIR" INDICATES FEW OR NO CLOUDS BELOW 12,000 FEET
WITH NO SIGNIFICANT WEATHER AND/OR OBSTRUCTIONS TO VISIBILITY.

WYZ001-290500-
YELLOWSTONE NATIONAL PARK

CITY           SKY/WX    TMP DP  RH WIND       PRES   REMARKS
LK YELLOWSTONE   N/A     51  34  52 CALM      30.44R
W YELLOWSTONE  NOT AVBL

$$
WYZ002>013-054>058-071-098>099-290500-
NORTHERN WYOMING

CITY           SKY/WX    TMP DP  RH WIND       PRES   REMARKS
JACKSON        FAIR      55  28  35 E5        30.32R
CODY           FAIR      70  34  26 CALM      30.22R
GREYBULL       FAIR      72  31  22 W9        30.09R
WORLAND        FAIR      69  29  22 CALM      30.11R
SHERIDAN       FAIR      65  45  48 CALM      30.15R
BUFFALO        FAIR      68  32  26 W9        30.22R
GILLETTE       FAIR      60  37  42 CALM      30.14R
HULETT         FAIR      72  39  30 E5        30.16R
NEWCASTLE      FAIR      75  36  23 NE14      30.12R

$$
WYZ014>020-022>026-101>103-290500-
CENTRAL WYOMING

CITY           SKY/WX    TMP DP  RH WIND       PRES   REMARKS
BIG PINEY      FAIR      57  29  34 N10       30.35R
PINEDALE       FAIR      52  32  46 NW3       30.36S
DUBOIS         FAIR      61  27  27 NW8       30.37R
LANDER         FAIR      71  32  23 W10       30.21R
RIVERTON       FAIR      73  26  17 S3        30.21R
CASPER         FAIR      60  41  49 CALM      30.19R
DOUGLAS        FAIR      63  32  31 E8        30.18R

$$
WYZ021-027>030-104>119-290500-
SOUTHERN WYOMING

CITY           SKY/WX    TMP DP  RH WIND       PRES   REMARKS
EVANSTON       FAIR      66  28  24 N6        30.37R
FORT BRIDGER   FAIR      63  26  25 W7        30.38R
ROCK SPRINGS   FAIR      67  23  19 W9        30.30R
DIXON          FAIR      60  29  30 N5        30.33R
RAWLINS        FAIR      58  20  22 N3        30.30R
SARATOGA       FAIR      61  34  36 SE15G22   30.33S
LARAMIE        FAIR      58  35  42 S13       30.35R
CHEYENNE       FAIR      64  46  52 SW9       30.31R
TORRINGTON     FAIR      69  43  38 S6        30.14R
PINE BLUFFS    FAIR      64  43  45 SW9       30.23R

$$




USA.gov is the U.S. government's official web portal to all federal, state and local government web resources and services.